| time (UTC) | temp C | wind direction | speed KPH | gust KPH | rain 1hr cm | rain 24hr cm | rain mn cm | humidity % | barometer mb |
| 20260510043020 | 9 | 240 | 0.0 | 0.0 | 0.00 | 0.00 | 0.00 | 49 | 1029.1 |
| 20260510042750 | 9 | 240 | 0.0 | 0.0 | 0.00 | 0.00 | 0.00 | 47 | 1029.0 |
| 20260510042019 | 9 | 240 | 0.0 | 0.0 | 0.00 | 0.00 | 0.00 | 47 | 1028.9 |
| 20260510041517 | 9 | 240 | 0.0 | 0.0 | 0.00 | 0.00 | 0.00 | 47 | 1028.8 |
| 20260510041016 | 9 | 240 | 0.0 | 0.0 | 0.00 | 0.00 | 0.00 | 47 | 1028.8 |
| 20260510040458 | 9 | 240 | 0.0 | 0.0 | 0.00 | 0.00 | 0.00 | 47 | 1028.8 |
| 20260510040003 | 10 | 240 | 0.0 | 0.0 | 0.00 | 0.00 | 0.00 | 46 | 1028.7 |
| 20260510035433 | 10 | 240 | 0.0 | 0.0 | 0.00 | 0.00 | 0.00 | 46 | 1028.7 |
| 20260510034936 | 10 | 240 | 0.0 | 0.0 | 0.00 | 0.00 | 0.00 | 46 | 1028.6 |
| 20260510034638 | 10 | 240 | 0.0 | 0.0 | 0.00 | 0.00 | 0.00 | 45 | 1028.5 |
| 20260510033906 | 10 | 240 | 0.0 | 0.0 | 0.00 | 0.00 | 0.00 | 45 | 1028.5 |
| 20260510033401 | 10 | 240 | 0.0 | 0.0 | 0.00 | 0.00 | 0.00 | 44 | 1028.4 |
| 20260510032900 | 10 | 244 | 0.0 | 0.0 | 0.00 | 0.00 | 0.00 | 44 | 1028.3 |
| 20260510032342 | 10 | 244 | 0.0 | 0.0 | 0.00 | 0.00 | 0.00 | 43 | 1028.3 |
| 20260510031843 | 10 | 244 | 0.0 | 0.0 | 0.00 | 0.00 | 0.00 | 43 | 1028.2 |
| 20260510031317 | 10 | 244 | 0.0 | 0.0 | 0.00 | 0.00 | 0.00 | 43 | 1028.2 |
| 20260510030816 | 10 | 244 | 0.0 | 0.0 | 0.00 | 0.00 | 0.00 | 43 | 1028.1 |
| 20260510030558 | 10 | 244 | 0.0 | 0.0 | 0.00 | 0.00 | 0.00 | 43 | 1028.0 |
| 20260510030016 | 11 | 244 | 0.0 | 0.0 | 0.00 | 0.00 | 0.00 | 42 | 1027.9 |
| 20260510025242 | 11 | 244 | 0.0 | 0.0 | 0.00 | 0.00 | 0.00 | 42 | 1027.9 |
| 20260510024731 | 11 | 211 | 0.0 | 0.0 | 0.00 | 0.00 | 0.00 | 42 | 1027.9 |
| 20260510024229 | 11 | 213 | 0.0 | 0.0 | 0.00 | 0.00 | 0.00 | 41 | 1027.8 |
| 20260510023726 | 11 | 213 | 0.0 | 0.0 | 0.00 | 0.00 | 0.00 | 41 | 1027.6 |
| 20260510023223 | 11 | 213 | 0.0 | 0.0 | 0.00 | 0.00 | 0.00 | 40 | 1027.5 |
| 20260510022720 | 11 | 212 | 0.0 | 0.0 | 0.00 | 0.00 | 0.00 | 40 | 1027.3 |
| 20260510022220 | 11 | 212 | 0.0 | 0.0 | 0.00 | 0.00 | 0.00 | 40 | 1027.2 |
| 20260510021707 | 11 | 212 | 0.0 | 0.0 | 0.00 | 0.00 | 0.00 | 39 | 1027.0 |
| 20260510021434 | 11 | 212 | 0.0 | 0.0 | 0.00 | 0.00 | 0.00 | 39 | 1026.9 |
| 20260510020701 | 11 | 212 | 0.0 | 0.0 | 0.00 | 0.00 | 0.00 | 38 | 1026.8 |
| 20260510020200 | 12 | 212 | 0.0 | 0.0 | 0.00 | 0.00 | 0.00 | 38 | 1026.7 |
| 20260510015655 | 12 | 214 | 0.0 | 0.0 | 0.00 | 0.00 | 0.00 | 38 | 1026.6 |
| 20260510015154 | 12 | 214 | 0.0 | 0.0 | 0.00 | 0.00 | 0.00 | 38 | 1026.4 |
| 20260510014636 | 12 | 214 | 0.0 | 0.0 | 0.00 | 0.00 | 0.00 | 38 | 1026.3 |
| 20260510014141 | 12 | 214 | 0.0 | 0.0 | 0.00 | 0.00 | 0.00 | 37 | 1026.3 |
| 20260510013615 | 12 | 214 | 0.0 | 0.0 | 0.00 | 0.00 | 0.00 | 36 | 1026.2 |
| 20260510013050 | 12 | 214 | 0.0 | 0.0 | 0.00 | 0.00 | 0.00 | 37 | 1026.1 |
| 20260510012537 | 12 | 214 | 0.0 | 0.0 | 0.00 | 0.00 | 0.00 | 36 | 1026.1 |
| 20260510012036 | 13 | 214 | 0.0 | 0.0 | 0.00 | 0.00 | 0.00 | 36 | 1026.0 |
| 20260510011517 | 13 | 213 | 0.0 | 0.0 | 0.00 | 0.00 | 0.00 | 35 | 1025.9 |
| 20260510010940 | 13 | 214 | 0.0 | 0.0 | 0.00 | 0.00 | 0.00 | 35 | 1025.8 |
| 20260510010412 | 13 | 214 | 0.0 | 1.6 | 0.00 | 0.00 | 0.00 | 34 | 1025.7 |
| 20260510005913 | 13 | 213 | 0.0 | 1.6 | 0.00 | 0.00 | 0.00 | 33 | 1025.6 |
| 20260510005353 | 13 | 69 | 0.0 | 4.8 | 0.00 | 0.00 | 0.00 | 34 | 1025.6 |
| 20260510005126 | 13 | 236 | 0.0 | 1.6 | 0.00 | 0.00 | 0.00 | 33 | 1025.5 |
| 20260510004339 | 13 | 248 | 0.0 | 4.8 | 0.00 | 0.00 | 0.00 | 32 | 1025.4 |
| 20260510003838 | 13 | 236 | 0.0 | 4.8 | 0.00 | 0.00 | 0.00 | 32 | 1025.4 |
| 20260510003821 | 14 | 150 | 0.0 | 1.6 | 0.00 | 0.00 | 0.00 | 31 | 1025.4 |
| 20260510002820 | 14 | 320 | 0.0 | 0.0 | 0.00 | 0.00 | 0.00 | 31 | 1025.3 |
| 20260510002253 | 14 | 260 | 0.0 | 1.6 | 0.00 | 0.00 | 0.00 | 32 | 1025.2 |
| 20260510001756 | 14 | 300 | 0.0 | 11.3 | 0.00 | 0.00 | 0.00 | 32 | 1025.2 |
| 20260510001247 | 15 | 270 | 0.0 | 11.3 | 0.00 | 0.00 | 0.00 | 31 | 1025.1 |
| 20260510000750 | 15 | 298 | 0.0 | 11.3 | 0.00 | 0.00 | 0.00 | 31 | 1025.2 |
| 20260510000235 | 15 | 288 | 0.0 | 11.3 | 0.00 | 0.00 | 0.00 | 30 | 1025.0 |
| 20260510000002 | 15 | 232 | 0.0 | 8.0 | 0.00 | 0.00 | 0.00 | 30 | 1024.9 |
| 20260509235215 | 15 | 178 | 0.0 | 8.0 | 0.00 | 0.00 | 0.00 | 30 | 1024.9 |
| 20260509235156 | 15 | 251 | 0.0 | 4.8 | 0.00 | 0.00 | 0.00 | 30 | 1024.9 |
| 20260509234141 | 15 | 243 | 0.0 | 6.4 | 0.00 | 0.00 | 0.00 | 29 | 1024.8 |
| 20260509233602 | 15 | 302 | 0.0 | 6.4 | 0.00 | 0.00 | 0.00 | 30 | 1024.8 |
| 20260509233312 | 15 | 304 | 0.0 | 8.0 | 0.00 | 0.00 | 0.00 | 30 | 1024.5 |
| 20260509232524 | 15 | 232 | 0.0 | 8.0 | 0.00 | 0.00 | 0.00 | 29 | 1024.5 |
| 20260509232023 | 16 | 228 | 0.0 | 6.4 | 0.00 | 0.00 | 0.00 | 28 | 1024.5 |
| 20260509231452 | 16 | 17 | 0.0 | 3.2 | 0.00 | 0.00 | 0.00 | 28 | 1024.5 |
| 20260509230945 | 16 | 5 | 0.0 | 3.2 | 0.00 | 0.00 | 0.00 | 27 | 1024.4 |
| 20260509230443 | 17 | 30 | 0.0 | 3.2 | 0.00 | 0.00 | 0.00 | 28 | 1024.3 |
| 20260509225940 | 17 | 313 | 0.0 | 8.0 | 0.00 | 0.00 | 0.00 | 28 | 1024.3 |
| 20260509225441 | 17 | 315 | 0.0 | 8.0 | 0.00 | 0.00 | 0.00 | 27 | 1024.2 |
| 20260509224939 | 17 | 223 | 0.0 | 0.0 | 0.00 | 0.00 | 0.00 | 27 | 1024.1 |
| 20260509224708 | 17 | 15 | 0.0 | 0.0 | 0.00 | 0.00 | 0.00 | 28 | 1024.1 |
| 20260509223939 | 17 | 267 | 0.0 | 0.0 | 0.00 | 0.00 | 0.00 | 26 | 1023.9 |
| 20260509223318 | 17 | 350 | 0.0 | 6.4 | 0.00 | 0.00 | 0.00 | 27 | 1023.9 |
| 20260509222820 | 17 | 9 | 0.0 | 6.4 | 0.00 | 0.00 | 0.00 | 26 | 1023.9 |
| 20260509222253 | 17 | 0 | 0.0 | 6.4 | 0.00 | 0.00 | 0.00 | 27 | 1024.0 |
| 20260509221735 | 18 | 338 | 0.0 | 3.2 | 0.00 | 0.00 | 0.00 | 25 | 1023.9 |
| 20260509221234 | 18 | 317 | 0.0 | 1.6 | 0.00 | 0.00 | 0.00 | 26 | 1023.8 |
| 20260509220733 | 18 | 181 | 0.0 | 1.6 | 0.00 | 0.00 | 0.00 | 25 | 1023.8 |
| 20260509220230 | 18 | 261 | 0.0 | 1.6 | 0.00 | 0.00 | 0.00 | 26 | 1023.7 |
| 20260509215727 | 18 | 157 | 0.0 | 11.3 | 0.00 | 0.00 | 0.00 | 27 | 1023.8 |
| 20260509215227 | 18 | 243 | 0.0 | 11.3 | 0.00 | 0.00 | 0.00 | 26 | 1023.7 |
| 20260509214723 | 18 | 65 | 0.0 | 1.6 | 0.00 | 0.00 | 0.00 | 25 | 1023.7 |
| 20260509214223 | 18 | 351 | 0.0 | 0.0 | 0.00 | 0.00 | 0.00 | 27 | 1023.8 |
| 20260509213722 | 18 | 307 | 0.0 | 1.6 | 0.00 | 0.00 | 0.00 | 26 | 1023.8 |
| 20260509213458 | 18 | 65 | 0.0 | 0.0 | 0.00 | 0.00 | 0.00 | 27 | 1023.7 |
| 20260509212658 | 18 | 0 | 0.0 | 8.0 | 0.00 | 0.00 | 0.00 | 26 | 1023.6 |
| 20260509212130 | 18 | 15 | 0.0 | 8.0 | 0.00 | 0.00 | 0.00 | 25 | 1023.6 |
| 20260509211629 | 18 | 335 | 0.0 | 4.8 | 0.00 | 0.00 | 0.00 | 27 | 1023.5 |
| 20260509211104 | 18 | 308 | 0.0 | 3.2 | 0.00 | 0.00 | 0.00 | 26 | 1023.6 |
| 20260509210817 | 18 | 241 | 0.0 | 4.8 | 0.00 | 0.00 | 0.00 | 26 | 1023.5 |
| 20260509210319 | 18 | 263 | 0.0 | 4.8 | 0.00 | 0.00 | 0.00 | 26 | 1023.4 |
| 20260509205547 | 18 | 105 | 0.0 | 3.2 | 0.00 | 0.00 | 0.00 | 26 | 1023.5 |
| 20260509205018 | 18 | 20 | 0.0 | 4.8 | 0.00 | 0.00 | 0.00 | 27 | 1023.4 |
| 20260509204515 | 18 | 233 | 0.0 | 9.7 | 0.00 | 0.00 | 0.00 | 26 | 1023.5 |
| 20260509204015 | 18 | 338 | 0.0 | 9.7 | 0.00 | 0.00 | 0.00 | 27 | 1023.4 |
| 20260509203446 | 18 | 273 | 0.0 | 4.8 | 0.00 | 0.00 | 0.00 | 27 | 1023.4 |
| 20260509202932 | 18 | 311 | 0.0 | 4.8 | 0.00 | 0.00 | 0.00 | 26 | 1023.4 |
| 20260509202428 | 18 | 306 | 0.0 | 3.2 | 0.00 | 0.00 | 0.00 | 27 | 1023.4 |
| 20260509201905 | 18 | 307 | 0.0 | 6.4 | 0.00 | 0.00 | 0.00 | 27 | 1023.3 |
| 20260509201336 | 18 | 55 | 0.0 | 6.4 | 0.00 | 0.00 | 0.00 | 29 | 1023.2 |
| 20260509200832 | 18 | 296 | 0.0 | 0.0 | 0.00 | 0.00 | 0.00 | 30 | 1023.2 |
| 20260509200810 | 18 | 197 | 0.0 | 1.6 | 0.00 | 0.00 | 0.00 | 30 | 1023.2 |
| 20260509195808 | 18 | 92 | 0.0 | 1.6 | 0.00 | 0.00 | 0.00 | 30 | 1023.1 |
| 20260509195306 | 18 | 40 | 0.0 | 9.7 | 0.00 | 0.00 | 0.00 | 28 | 1023.2 |
| 20260509194805 | 18 | 292 | 0.0 | 9.7 | 0.00 | 0.00 | 0.00 | 26 | 1023.0 |
| 20260509194532 | 18 | 306 | 0.0 | 4.8 | 0.00 | 0.00 | 0.00 | 29 | 1023.1 |
| 20260509193759 | 17 | 346 | 0.0 | 4.8 | 0.00 | 0.00 | 0.00 | 28 | 1022.9 |
| 20260509193233 | 18 | 32 | 0.0 | 4.8 | 0.00 | 0.00 | 0.00 | 29 | 1022.9 |
| 20260509192733 | 18 | 87 | 0.0 | 1.6 | 0.00 | 0.00 | 0.00 | 27 | 1022.9 |
| 20260509192204 | 18 | 287 | 0.0 | 16.1 | 0.00 | 0.00 | 0.00 | 27 | 1022.9 |
| 20260509191702 | 18 | 250 | 0.0 | 16.1 | 0.00 | 0.00 | 0.00 | 28 | 1022.8 |
| 20260509191134 | 18 | 254 | 0.0 | 3.2 | 0.00 | 0.00 | 0.00 | 30 | 1022.7 |
| 20260509190630 | 18 | 13 | 0.0 | 1.6 | 0.00 | 0.00 | 0.00 | 32 | 1022.9 |
| 20260509190104 | 18 | 282 | 0.0 | 6.4 | 0.00 | 0.00 | 0.00 | 31 | 1022.8 |
| 20260509185829 | 17 | 333 | 0.0 | 6.4 | 0.00 | 0.00 | 0.00 | 32 | 1022.7 |
| 20260509185031 | 17 | 336 | 0.0 | 6.4 | 0.00 | 0.00 | 0.00 | 34 | 1022.5 |
| 20260509184504 | 18 | 46 | 0.0 | 12.9 | 0.00 | 0.00 | 0.00 | 31 | 1022.5 |
| 20260509183936 | 17 | 24 | 0.0 | 12.9 | 0.00 | 0.00 | 0.00 | 33 | 1022.5 |
| 20260509183434 | 18 | 329 | 0.0 | 1.6 | 0.00 | 0.00 | 0.00 | 31 | 1022.5 |
| 20260509183149 | 18 | 301 | 0.0 | 1.6 | 0.00 | 0.00 | 0.00 | 30 | 1022.5 |
| 20260509182419 | 18 | 217 | 0.0 | 3.2 | 0.00 | 0.00 | 0.00 | 31 | 1022.4 |
| 20260509181914 | 17 | 252 | 0.0 | 3.2 | 0.00 | 0.00 | 0.00 | 31 | 1022.4 |
| 20260509181414 | 17 | 108 | 0.0 | 9.7 | 0.00 | 0.00 | 0.00 | 34 | 1022.2 |
| 20260509180908 | 17 | 81 | 0.0 | 9.7 | 0.00 | 0.00 | 0.00 | 33 | 1022.2 |
| 20260509180406 | 17 | 316 | 0.0 | 1.6 | 0.00 | 0.00 | 0.00 | 37 | 1022.1 |
| 20260509175853 | 17 | 340 | 0.0 | 12.9 | 0.00 | 0.00 | 0.00 | 37 | 1022.1 |
| 20260509175353 | 17 | 0 | 0.0 | 12.9 | 0.00 | 0.00 | 0.00 | 35 | 1022.1 |
| 20260509175100 | 17 | 325 | 0.0 | 8.0 | 0.00 | 0.00 | 0.00 | 37 | 1022.0 |
| 20260509174329 | 16 | 300 | 0.0 | 8.0 | 0.00 | 0.00 | 0.00 | 35 | 1022.1 |
| 20260509173827 | 17 | 43 | 0.0 | 3.2 | 0.00 | 0.00 | 0.00 | 34 | 1021.9 |
| 20260509173326 | 17 | 275 | 0.0 | 9.7 | 0.00 | 0.00 | 0.00 | 34 | 1021.9 |
| 20260509172827 | 17 | 326 | 0.0 | 1.6 | 0.00 | 0.00 | 0.00 | 35 | 1021.9 |
| 20260509172307 | 16 | 240 | 0.0 | 16.1 | 0.00 | 0.00 | 0.00 | 35 | 1021.9 |
| 20260509171738 | 17 | 254 | 0.0 | 1.6 | 0.00 | 0.00 | 0.00 | 35 | 1021.8 |
| 20260509171236 | 16 | 279 | 0.0 | 12.9 | 0.00 | 0.00 | 0.00 | 36 | 1021.7 |
| 20260509170708 | 16 | 19 | 0.0 | 17.7 | 0.00 | 0.00 | 0.00 | 35 | 1021.8 |
| 20260509170441 | 16 | 351 | 0.0 | 1.6 | 0.00 | 0.00 | 0.00 | 35 | 1021.8 |
| 20260509165648 | 16 | 256 | 0.0 | 11.3 | 0.00 | 0.00 | 0.00 | 33 | 1021.8 |
| 20260509165151 | 17 | 245 | 0.0 | 4.8 | 0.00 | 0.00 | 0.00 | 34 | 1021.7 |
| 20260509164622 | 16 | 0 | 0.0 | 4.8 | 0.00 | 0.00 | 0.00 | 33 | 1021.7 |
| 20260509164120 | 17 | 244 | 0.0 | 1.6 | 0.00 | 0.00 | 0.00 | 34 | 1021.6 |
| 20260509163553 | 16 | 24 | 0.0 | 4.8 | 0.00 | 0.00 | 0.00 | 35 | 1021.6 |
| 20260509163322 | 16 | 210 | 0.0 | 4.8 | 0.00 | 0.00 | 0.00 | 36 | 1021.6 |
| 20260509162533 | 16 | 319 | 0.0 | 8.0 | 0.00 | 0.00 | 0.00 | 37 | 1021.4 |
| 20260509162037 | 16 | 321 | 0.0 | 8.0 | 0.00 | 0.00 | 0.00 | 35 | 1021.3 |
| 20260509161740 | 15 | 277 | 0.0 | 3.2 | 0.00 | 0.00 | 0.00 | 36 | 1021.3 |
| 20260509161005 | 15 | 292 | 0.0 | 1.6 | 0.00 | 0.00 | 0.00 | 36 | 1021.3 |
| 20260509160441 | 15 | 329 | 0.0 | 6.4 | 0.00 | 0.00 | 0.00 | 39 | 1021.2 |
| 20260509155915 | 15 | 285 | 0.0 | 6.4 | 0.00 | 0.00 | 0.00 | 40 | 1021.2 |
| 20260509155354 | 15 | 277 | 0.0 | 4.8 | 0.00 | 0.00 | 0.00 | 42 | 1021.2 |
| 20260509154857 | 15 | 266 | 0.0 | 4.8 | 0.00 | 0.00 | 0.00 | 41 | 1021.1 |
| 20260509154328 | 15 | 306 | 0.0 | 3.2 | 0.00 | 0.00 | 0.00 | 41 | 1021.1 |
| 20260509153827 | 15 | 269 | 0.0 | 3.2 | 0.00 | 0.00 | 0.00 | 42 | 1020.9 |
| 20260509153259 | 15 | 315 | 0.0 | 0.0 | 0.00 | 0.00 | 0.00 | 43 | 1021.0 |
| 20260509153030 | 15 | 332 | 0.0 | 0.0 | 0.00 | 0.00 | 0.00 | 43 | 1020.8 |
| 20260509152503 | 15 | 290 | 0.0 | 1.6 | 0.00 | 0.00 | 0.00 | 48 | 1020.8 |
| 20260509151726 | 14 | 327 | 0.0 | 1.6 | 0.00 | 0.00 | 0.00 | 47 | 1020.8 |
| 20260509151456 | 14 | 351 | 0.0 | 1.6 | 0.00 | 0.00 | 0.00 | 50 | 1020.7 |
| 20260509150953 | 13 | 326 | 0.0 | 3.2 | 0.00 | 0.00 | 0.00 | 48 | 1020.6 |
| 20260509150157 | 13 | 10 | 0.0 | 3.2 | 0.00 | 0.00 | 0.00 | 50 | 1020.5 |
| 20260509145638 | 13 | 29 | 0.0 | 0.0 | 0.00 | 0.00 | 0.00 | 52 | 1020.5 |
| 20260509145132 | 13 | 314 | 0.0 | 1.6 | 0.00 | 0.00 | 0.00 | 54 | 1020.5 |
| 20260509144637 | 13 | 10 | 0.0 | 1.6 | 0.00 | 0.00 | 0.00 | 55 | 1020.4 |
| 20260509144110 | 12 | 329 | 0.0 | 3.2 | 0.00 | 0.00 | 0.00 | 57 | 1020.4 |
| 20260509143546 | 12 | 318 | 0.0 | 3.2 | 0.00 | 0.00 | 0.00 | 57 | 1020.3 |
| 20260509143040 | 12 | 315 | 0.0 | 1.6 | 0.00 | 0.00 | 0.00 | 59 | 1020.3 |
| 20260509142540 | 12 | 250 | 0.0 | 0.0 | 0.00 | 0.00 | 0.00 | 60 | 1020.1 |
| 20260509142030 | 12 | 304 | 0.0 | 0.0 | 0.00 | 0.00 | 0.00 | 62 | 1020.1 |
| 20260509141528 | 12 | 346 | 0.0 | 0.0 | 0.00 | 0.00 | 0.00 | 63 | 1020.0 |
| 20260509141014 | 12 | 277 | 0.0 | 0.0 | 0.00 | 0.00 | 0.00 | 63 | 1019.7 |
| 20260509140452 | 12 | 273 | 0.0 | 4.8 | 0.00 | 0.00 | 0.00 | 64 | 1019.6 |
| 20260509135957 | 11 | 274 | 0.0 | 4.8 | 0.00 | 0.00 | 0.00 | 66 | 1019.5 |
| 20260509135725 | 11 | 41 | 0.0 | 4.8 | 0.00 | 0.00 | 0.00 | 68 | 1019.4 |
| 20260509134955 | 11 | 273 | 0.0 | 4.8 | 0.00 | 0.00 | 0.00 | 70 | 1019.4 |
| 20260509134431 | 11 | 0 | 0.0 | 1.6 | 0.00 | 0.00 | 0.00 | 72 | 1019.4 |
| 20260509133904 | 11 | 26 | 0.0 | 1.6 | 0.00 | 0.00 | 0.00 | 73 | 1019.2 |
| 20260509133407 | 10 | 269 | 0.0 | 1.6 | 0.00 | 0.00 | 0.00 | 72 | 1019.2 |
| 20260509132858 | 11 | 29 | 0.0 | 1.6 | 0.00 | 0.00 | 0.00 | 71 | 1019.2 |
| 20260509132355 | 11 | 281 | 0.0 | 0.0 | 0.00 | 0.00 | 0.00 | 72 | 1019.1 |
| 20260509131853 | 11 | 274 | 0.0 | 0.0 | 0.00 | 0.00 | 0.00 | 73 | 1019.0 |
| 20260509131357 | 11 | 161 | 0.0 | 0.0 | 0.00 | 0.00 | 0.00 | 73 | 1018.9 |
| 20260509130833 | 11 | 252 | 0.0 | 3.2 | 0.00 | 0.00 | 0.00 | 74 | 1018.8 |
| 20260509130606 | 11 | 13 | 0.0 | 3.2 | 0.00 | 0.00 | 0.00 | 74 | 1018.7 |
| 20260509125810 | 11 | 234 | 0.0 | 3.2 | 0.00 | 0.00 | 0.00 | 74 | 1018.7 |
| 20260509125245 | 11 | 256 | 0.0 | 3.2 | 0.00 | 0.00 | 0.00 | 75 | 1018.6 |
| 20260509124738 | 11 | 271 | 0.0 | 3.2 | 0.00 | 0.00 | 0.00 | 75 | 1018.4 |
| 20260509124237 | 11 | 230 | 0.0 | 0.0 | 0.00 | 0.00 | 0.00 | 75 | 1018.4 |
| 20260509123737 | 11 | 231 | 0.0 | 1.6 | 0.00 | 0.00 | 0.00 | 75 | 1018.3 |
| 20260509123235 | 11 | 230 | 0.0 | 1.6 | 0.00 | 0.00 | 0.00 | 75 | 1018.1 |
| 20260509122733 | 11 | 265 | 0.0 | 0.0 | 0.00 | 0.00 | 0.00 | 75 | 1018.1 |
| 20260509122234 | 11 | 274 | 0.0 | 0.0 | 0.00 | 0.00 | 0.00 | 75 | 1018.0 |
| 20260509121935 | 11 | 272 | 0.0 | 12.9 | 0.00 | 0.00 | 0.00 | 75 | 1017.9 |
| 20260509121142 | 11 | 271 | 0.0 | 12.9 | 0.00 | 0.00 | 0.00 | 74 | 1017.7 |
| 20260509120617 | 11 | 225 | 0.0 | 3.2 | 0.00 | 0.00 | 0.00 | 74 | 1017.8 |
| 20260509120101 | 11 | 311 | 0.0 | 3.2 | 0.00 | 0.00 | 0.00 | 73 | 1017.6 |
| 20260509115537 | 11 | 257 | 0.0 | 4.8 | 0.00 | 0.00 | 0.00 | 72 | 1017.4 |
| 20260509115040 | 11 | 271 | 0.0 | 9.7 | 0.00 | 0.00 | 0.00 | 70 | 1017.3 |
| 20260509114529 | 11 | 259 | 0.0 | 9.7 | 0.00 | 0.00 | 0.00 | 69 | 1017.3 |
| 20260509114029 | 11 | 250 | 0.0 | 0.0 | 0.00 | 0.00 | 0.00 | 69 | 1017.3 |
| 20260509113530 | 11 | 235 | 0.0 | 0.0 | 0.00 | 0.00 | 0.00 | 69 | 1017.2 |
| 20260509113010 | 11 | 235 | 0.0 | 0.0 | 0.00 | 0.00 | 0.00 | 69 | 1017.0 |
| 20260509112448 | 11 | 235 | 0.0 | 0.0 | 0.00 | 0.00 | 0.00 | 69 | 1017.0 |
| 20260509111924 | 11 | 235 | 0.0 | 0.0 | 0.00 | 0.00 | 0.00 | 70 | 1016.9 |
| 20260509111357 | 11 | 198 | 0.0 | 0.0 | 0.00 | 0.00 | 0.00 | 70 | 1016.8 |
| 20260509110854 | 11 | 198 | 0.0 | 0.0 | 0.00 | 0.00 | 0.00 | 70 | 1016.8 |
| 20260509110623 | 11 | 198 | 0.0 | 0.0 | 0.00 | 0.00 | 0.00 | 69 | 1016.6 |
| 20260509105824 | 11 | 196 | 0.0 | 0.0 | 0.00 | 0.00 | 0.00 | 69 | 1016.7 |
| 20260509105259 | 11 | 196 | 0.0 | 0.0 | 0.00 | 0.00 | 0.00 | 69 | 1016.6 |
| 20260509105031 | 11 | 196 | 0.0 | 0.0 | 0.00 | 0.00 | 0.00 | 70 | 1016.5 |
| 20260509104244 | 11 | 196 | 0.0 | 0.0 | 0.00 | 0.00 | 0.00 | 69 | 1016.6 |
| 20260509103747 | 11 | 196 | 0.0 | 0.0 | 0.00 | 0.00 | 0.00 | 67 | 1016.5 |
| 20260509103222 | 11 | 196 | 0.0 | 0.0 | 0.00 | 0.00 | 0.00 | 64 | 1016.1 |
| 20260509103217 | 11 | 196 | 0.0 | 0.0 | 0.00 | 0.00 | 0.00 | 65 | 1016.5 |
| 20260509102149 | 11 | 196 | 0.0 | 0.0 | 0.00 | 0.00 | 0.00 | 62 | 1015.9 |
| 20260509101621 | 11 | 196 | 0.0 | 0.0 | 0.00 | 0.00 | 0.00 | 62 | 1016.3 |
| 20260509101110 | 11 | 196 | 0.0 | 0.0 | 0.00 | 0.00 | 0.00 | 62 | 1016.3 |
| 20260509100606 | 11 | 196 | 0.0 | 0.0 | 0.00 | 0.00 | 0.00 | 63 | 1016.3 |
| 20260509100040 | 11 | 196 | 0.0 | 0.0 | 0.00 | 0.00 | 0.00 | 62 | 1016.2 |
| 20260509095813 | 11 | 196 | 0.0 | 0.0 | 0.00 | 0.00 | 0.00 | 60 | 1016.8 |
| 20260509095538 | 11 | 196 | 0.0 | 0.0 | 0.00 | 0.00 | 0.00 | 61 | 1016.6 |
| 20260509094522 | 11 | 196 | 0.0 | 0.0 | 0.00 | 0.00 | 0.00 | 60 | 1016.8 |
| 20260509094024 | 11 | 196 | 0.0 | 0.0 | 0.00 | 0.00 | 0.00 | 59 | 1016.8 |
| 20260509093745 | 11 | 196 | 0.0 | 0.0 | 0.00 | 0.00 | 0.00 | 59 | 1016.7 |
| 20260509093012 | 11 | 196 | 0.0 | 0.0 | 0.00 | 0.00 | 0.00 | 58 | 1016.7 |
| 20260509092714 | 11 | 196 | 0.0 | 0.0 | 0.00 | 0.00 | 0.00 | 56 | 1016.7 |
| 20260509091942 | 11 | 196 | 0.0 | 0.0 | 0.00 | 0.00 | 0.00 | 56 | 1016.5 |
| 20260509091416 | 10 | 196 | 0.0 | 0.0 | 0.00 | 0.00 | 0.00 | 55 | 1016.6 |
| 20260509090920 | 10 | 196 | 0.0 | 0.0 | 0.00 | 0.00 | 0.00 | 54 | 1016.5 |
| 20260509090415 | 10 | 196 | 0.0 | 0.0 | 0.00 | 0.00 | 0.00 | 54 | 1016.4 |
| 20260509085913 | 10 | 196 | 0.0 | 0.0 | 0.00 | 0.00 | 0.00 | 53 | 1016.3 |
| 20260509085348 | 10 | 196 | 0.0 | 0.0 | 0.00 | 0.00 | 0.00 | 53 | 1016.1 |
| 20260509084822 | 11 | 197 | 0.0 | 0.0 | 0.00 | 0.00 | 0.00 | 52 | 1016.4 |
| 20260509084552 | 11 | 197 | 0.0 | 0.0 | 0.00 | 0.00 | 0.00 | 51 | 1016.2 |
| 20260509083820 | 11 | 196 | 0.0 | 0.0 | 0.00 | 0.00 | 0.00 | 51 | 1016.2 |
| 20260509083324 | 11 | 196 | 0.0 | 1.6 | 0.00 | 0.00 | 0.00 | 51 | 1016.1 |
| 20260509082755 | 11 | 196 | 0.0 | 1.6 | 0.00 | 0.00 | 0.00 | 52 | 1016.2 |
| 20260509082232 | 11 | 229 | 0.0 | 1.6 | 0.00 | 0.00 | 0.00 | 49 | 1015.7 |
| 20260509081704 | 11 | 223 | 0.0 | 4.8 | 0.00 | 0.00 | 0.00 | 49 | 1015.3 |
| 20260509081140 | 11 | 212 | 0.0 | 4.8 | 0.00 | 0.00 | 0.00 | 49 | 1015.3 |
| 20260509080610 | 11 | 221 | 0.0 | 1.6 | 0.00 | 0.00 | 0.00 | 48 | 1015.2 |
| 20260509080055 | 11 | 227 | 0.0 | 0.0 | 0.00 | 0.00 | 0.00 | 48 | 1015.2 |
| 20260509075554 | 11 | 220 | 0.0 | 0.0 | 0.00 | 0.00 | 0.00 | 47 | 1015.3 |
| 20260509075042 | 11 | 225 | 0.0 | 0.0 | 0.00 | 0.00 | 0.00 | 47 | 1015.2 |
| 20260509074540 | 11 | 228 | 0.0 | 0.0 | 0.00 | 0.00 | 0.00 | 46 | 1015.0 |
| 20260509074022 | 11 | 214 | 0.0 | 0.0 | 0.00 | 0.00 | 0.00 | 45 | 1014.9 |
| 20260509073520 | 11 | 214 | 0.0 | 0.0 | 0.00 | 0.00 | 0.00 | 45 | 1015.0 |
| 20260509073255 | 11 | 214 | 0.0 | 0.0 | 0.00 | 0.00 | 0.00 | 45 | 1015.0 |
| 20260509072455 | 11 | 214 | 0.0 | 0.0 | 0.00 | 0.00 | 0.00 | 45 | 1015.2 |
| 20260509071954 | 11 | 214 | 0.0 | 0.0 | 0.00 | 0.00 | 0.00 | 45 | 1015.2 |
| 20260509071720 | 11 | 214 | 0.0 | 0.0 | 0.00 | 0.00 | 0.00 | 45 | 1015.3 |
| 20260509070946 | 11 | 214 | 0.0 | 1.6 | 0.00 | 0.00 | 0.00 | 45 | 1015.5 |
| 20260509070420 | 11 | 214 | 0.0 | 3.2 | 0.00 | 0.00 | 0.00 | 44 | 1015.5 |
| 20260509065911 | 11 | 214 | 0.0 | 3.2 | 0.00 | 0.00 | 0.00 | 44 | 1015.4 |
| 20260509065344 | 11 | 189 | 0.0 | 0.0 | 0.00 | 0.00 | 0.00 | 44 | 1015.5 |
| 20260509064841 | 11 | 189 | 0.0 | 0.0 | 0.00 | 0.00 | 0.00 | 44 | 1015.5 |
| 20260509064610 | 11 | 189 | 0.0 | 0.0 | 0.00 | 0.00 | 0.00 | 44 | 1015.6 |
| 20260509064106 | 11 | 189 | 0.0 | 0.0 | 0.00 | 0.00 | 0.00 | 44 | 1015.7 |
| 20260509063948 | 11 | 189 | 0.0 | 1.6 | 0.00 | 0.00 | 0.00 | 44 | 1015.8 |
| 20260509062817 | 11 | 176 | 0.0 | 0.0 | 0.00 | 0.00 | 0.00 | 44 | 1015.9 |
| 20260509062316 | 11 | 159 | 0.0 | 0.0 | 0.00 | 0.00 | 0.00 | 44 | 1015.8 |
| 20260509061809 | 12 | 159 | 0.0 | 0.0 | 0.00 | 0.00 | 0.00 | 43 | 1015.8 |
| 20260509061306 | 12 | 159 | 0.0 | 0.0 | 0.00 | 0.00 | 0.00 | 43 | 1015.9 |
| 20260509060803 | 12 | 159 | 0.0 | 0.0 | 0.00 | 0.00 | 0.00 | 42 | 1015.9 |
| 20260509060301 | 12 | 159 | 0.0 | 0.0 | 0.00 | 0.00 | 0.00 | 42 | 1015.9 |
| 20260509055753 | 12 | 159 | 0.0 | 0.0 | 0.00 | 0.00 | 0.00 | 42 | 1015.9 |
| 20260509055236 | 12 | 159 | 0.0 | 0.0 | 0.00 | 0.00 | 0.00 | 42 | 1015.9 |
| 20260509054734 | 12 | 159 | 0.0 | 0.0 | 0.00 | 0.00 | 0.00 | 41 | 1016.0 |
| 20260509054208 | 12 | 159 | 0.0 | 0.0 | 0.00 | 0.00 | 0.00 | 41 | 1016.2 |
| 20260509053639 | 12 | 159 | 0.0 | 0.0 | 0.00 | 0.00 | 0.00 | 41 | 1016.4 |
| 20260509053138 | 12 | 159 | 0.0 | 0.0 | 0.00 | 0.00 | 0.00 | 41 | 1016.3 |
| 20260509052618 | 12 | 159 | 0.0 | 0.0 | 0.00 | 0.00 | 0.00 | 41 | 1016.4 |
| 20260509052036 | 12 | 159 | 0.0 | 0.0 | 0.00 | 0.00 | 0.00 | 40 | 1016.3 |
| 20260509051535 | 13 | 159 | 0.0 | 0.0 | 0.00 | 0.00 | 0.00 | 40 | 1016.3 |
| 20260509051006 | 13 | 159 | 0.0 | 0.0 | 0.00 | 0.00 | 0.00 | 40 | 1016.4 |
| 20260509050734 | 13 | 159 | 0.0 | 0.0 | 0.00 | 0.00 | 0.00 | 39 | 1016.6 |
| 20260509045938 | 13 | 159 | 0.0 | 0.0 | 0.00 | 0.00 | 0.00 | 39 | 1016.7 |
| 20260509045437 | 13 | 159 | 0.0 | 0.0 | 0.00 | 0.00 | 0.00 | 39 | 1016.7 |
| 20260509045210 | 13 | 159 | 0.0 | 0.0 | 0.00 | 0.00 | 0.00 | 39 | 1016.8 |
| 20260509044642 | 13 | 159 | 0.0 | 0.0 | 0.00 | 0.00 | 0.00 | 39 | 1016.7 |
| 20260509043909 | 13 | 159 | 0.0 | 0.0 | 0.00 | 0.00 | 0.00 | 39 | 1016.8 |
| 20260509043341 | 13 | 159 | 0.0 | 0.0 | 0.00 | 0.00 | 0.00 | 38 | 1016.8 |